NORTHEAST SUFFOLK  -  Winter Weather Advisory Winter Weather Advisory        NORTHERN NASSAU  -  Winter Weather Advisory Winter Weather Advisory        NORTHWEST SUFFOLK  -  Winter Weather Advisory Winter Weather Advisory        SOUTHEAST SUFFOLK  -  Winter Weather Advisory Winter Weather Advisory        SOUTHERN NASSAU  -  Winter Weather Advisory Winter Weather Advisory        SOUTHWEST SUFFOLK  -  Winter Weather Advisory Winter Weather Advisory      

Active alerts

Northern Nassau
  Details for Northern Nassau Winter Weather Advisory
Southern Nassau
  Details for Southern Nassau Winter Weather Advisory
Northwest Suffolk
  Details for Northwest Suffolk Winter Weather Advisory
Southwest Suffolk
  Details for Southwest Suffolk Winter Weather Advisory
Northeast Suffolk
  Details for Northeast Suffolk Winter Weather Advisory
Southeast Suffolk
  Details for Southeast Suffolk Winter Weather Advisory


WXM80 ListenWXM80 Stop

You find our weather info also at:

UK Metoffice

WeatherCloud

Weather Underground

Northeastern Weather Network

AWEKAS

Citizen Weather Observer Program (CWOP)

HAMweather, WeatherForYou, PWS Weather


Weather Underground History page Text

Daily Summary for March 21, 2017 Units:  English    Metric   Both
« Previous Day
Next Day »
Daily Weekly Monthly Yearly Custom
  High: Low: Average:
Temperature: 57.5 °F 40.2 °F 47.7 °F
Dew Point: 36.3 °F 26.2 °F 31 °F
Humidity: 65 % 39 % 53 %
Wind Speed: 6.6 mph 0.0 mph 1.8 mph
Wind Gust: 12.0 mph - -
Wind:- - WSW
Pressure: 29.94 in 29.77 in -
Precipitation: 0.00 in    
Historical Graphs
 
 
Tabular Data for March 21, 2017
Time Temperature Dew Point Pressure Wind Wind Speed Wind Gust Humidity Rainfall Rate (Hourly)
00:03 42.7 °F 26.7 °F 29.94 in WSW 0.6 mph 2.3 mph 53 % 0.00 in
00:08 42.8 °F 26.8 °F 29.94 in West 2.1 mph 3.5 mph 53 % 0.00 in
00:13 42.9 °F 26.5 °F 29.93 in WNW 2.0 mph 3.5 mph 52 % 0.00 in
00:18 43.1 °F 26.2 °F 29.93 in WSW 2.7 mph 5.0 mph 51 % 0.00 in
00:24 43.3 °F 26.8 °F 29.93 in WSW 1.6 mph 3.5 mph 52 % 0.00 in
00:29 43.4 °F 26.5 °F 29.93 in Calm   2.3 mph 51 % 0.00 in
00:34 43.4 °F 26.9 °F 29.93 in WNW 0.5 mph 1.2 mph 52 % 0.00 in
00:39 43.5 °F 27.5 °F 29.93 in WNW 0.4 mph 1.2 mph 53 % 0.00 in
00:44 43.6 °F 27.6 °F 29.94 in Calm   2.3 mph 53 % 0.00 in
00:49 43.6 °F 27.6 °F 29.94 in WNW 0.5 mph 2.3 mph 53 % 0.00 in
00:54 43.6 °F 27.6 °F 29.93 in WNW 0.4 mph 2.3 mph 53 % 0.00 in
00:59 43.6 °F 27.6 °F 29.93 in WSW 2.2 mph 3.5 mph 53 % 0.00 in
01:04 43.6 °F 27.6 °F 29.93 in WSW 0.2 mph 2.3 mph 53 % 0.00 in
01:05 43.6 °F 27.6 °F 29.93 in WSW 2.1 mph 3.5 mph 53 % 0.00 in
01:10 43.6 °F 27.6 °F 29.93 in WSW 0.3 mph 1.2 mph 53 % 0.00 in
01:15 43.5 °F 27.9 °F 29.93 in Calm     54 % 0.00 in
01:20 43.5 °F 27.9 °F 29.93 in WSW 0.5 mph 2.0 mph 54 % 0.00 in
01:25 43.4 °F 28.3 °F 29.93 in WSW 1.8 mph 3.5 mph 55 % 0.00 in
01:30 43.4 °F 28.3 °F 29.93 in SW 1.5 mph 4.0 mph 55 % 0.00 in
01:35 43.3 °F 27.8 °F 29.93 in WSW 2.2 mph 3.5 mph 54 % 0.00 in
01:40 43.3 °F 27.8 °F 29.92 in WSW 2.2 mph 3.5 mph 54 % 0.00 in
01:45 43.3 °F 27.8 °F 29.92 in WSW 1.8 mph 5.0 mph 54 % 0.00 in
01:50 43.3 °F 28.2 °F 29.92 in WSW 3.2 mph 4.6 mph 55 % 0.00 in
01:51 43.3 °F 28.2 °F 29.92 in WSW 2.3 mph 5.8 mph 55 % 0.00 in
01:56 43.3 °F 28.2 °F 29.92 in WSW 2.6 mph 4.6 mph 55 % 0.00 in
02:01 43.3 °F 28.2 °F 29.92 in WSW 1.2 mph 2.3 mph 55 % 0.00 in
02:06 43.3 °F 28.2 °F 29.92 in WSW 2.1 mph 3.5 mph 55 % 0.00 in
02:11 43.3 °F 28.2 °F 29.92 in WSW 2.2 mph 3.5 mph 55 % 0.00 in
02:16 43.3 °F 27.8 °F 29.92 in WSW 1.4 mph 3.5 mph 54 % 0.00 in
02:21 43.3 °F 27.8 °F 29.92 in WSW 1.8 mph 4.0 mph 54 % 0.00 in
02:26 43.3 °F 27.8 °F 29.91 in WSW 1.1 mph 3.5 mph 54 % 0.00 in
02:31 43.3 °F 27.8 °F 29.91 in West 2.1 mph 3.5 mph 54 % 0.00 in
02:36 43.3 °F 27.8 °F 29.91 in West 1.0 mph 3.5 mph 54 % 0.00 in
02:41 43.3 °F 27.8 °F 29.91 in Calm   1.2 mph 54 % 0.00 in
02:46 43.3 °F 28.2 °F 29.91 in West 0.3 mph 1.2 mph 55 % 0.00 in
02:51 43.2 °F 28.1 °F 29.90 in Calm   1.2 mph 55 % 0.00 in
02:56 43.2 °F 28.1 °F 29.90 in West 0.1 mph 1.2 mph 55 % 0.00 in
03:02 43.1 °F 28.5 °F 29.90 in West 0.1 mph   56 % 0.00 in
03:07 43.0 °F 28.4 °F 29.90 in Calm   1.2 mph 56 % 0.00 in
03:12 43.0 °F 28.4 °F 29.89 in West 0.3 mph 1.2 mph 56 % 0.00 in
03:17 42.9 °F 28.7 °F 29.90 in Calm   1.2 mph 57 % 0.00 in
03:22 42.8 °F 28.2 °F 29.90 in West 0.1 mph 1.2 mph 56 % 0.00 in
03:27 42.7 °F 28.5 °F 29.89 in Calm     57 % 0.00 in
03:32 42.5 °F 28.3 °F 29.89 in Calm     57 % 0.00 in
03:37 42.3 °F 28.6 °F 29.89 in West 0.1 mph 1.2 mph 58 % 0.00 in
03:42 42.3 °F 28.6 °F 29.88 in West 0.2 mph 2.3 mph 58 % 0.00 in
03:47 42.1 °F 28.4 °F 29.89 in West 2.2 mph 3.5 mph 58 % 0.00 in
03:52 41.9 °F 28.2 °F 29.89 in WSW 1.8 mph 3.5 mph 58 % 0.00 in
03:57 41.7 °F 28.0 °F 29.88 in SW 2.4 mph 4.6 mph 58 % 0.00 in
04:02 41.5 °F 27.4 °F 29.88 in SW 1.7 mph 2.3 mph 57 % 0.00 in
04:08 41.4 °F 27.3 °F 29.88 in SW 1.1 mph 3.5 mph 57 % 0.00 in
04:12 41.2 °F 27.5 °F 29.88 in SW 0.5 mph 2.3 mph 58 % 0.00 in
04:18 41.1 °F 27.4 °F 29.88 in WSW 1.4 mph 3.0 mph 58 % 0.00 in
04:23 40.9 °F 27.2 °F 29.88 in WSW 1.0 mph 4.0 mph 58 % 0.00 in
04:28 40.7 °F 27.5 °F 29.88 in WSW 2.0 mph 3.0 mph 59 % 0.00 in
04:33 40.5 °F 27.3 °F 29.88 in WSW 2.0 mph 4.0 mph 59 % 0.00 in
04:38 40.4 °F 27.2 °F 29.89 in WSW 1.0 mph 6.0 mph 59 % 0.00 in
04:43 40.3 °F 27.5 °F 29.89 in SW 1.9 mph 4.6 mph 60 % 0.00 in
04:48 40.2 °F 27.4 °F 29.89 in SW 3.2 mph 3.5 mph 60 % 0.00 in
04:53 40.2 °F 27.4 °F 29.89 in WSW 2.0 mph 5.0 mph 60 % 0.00 in
04:58 40.2 °F 27.4 °F 29.90 in SW 2.6 mph 3.5 mph 60 % 0.00 in
05:03 40.2 °F 27.8 °F 29.90 in WSW 2.2 mph 3.5 mph 61 % 0.00 in
05:08 40.2 °F 27.8 °F 29.90 in WSW 1.9 mph 4.6 mph 61 % 0.00 in
05:13 40.2 °F 27.8 °F 29.90 in WSW 0.9 mph 3.5 mph 61 % 0.00 in
05:18 40.3 °F 27.9 °F 29.89 in SSW 1.0 mph 4.6 mph 61 % 0.00 in
05:23 40.4 °F 28.0 °F 29.89 in WSW 2.3 mph 4.6 mph 61 % 0.00 in
05:28 40.4 °F 28.0 °F 29.89 in WSW 1.5 mph 3.5 mph 61 % 0.00 in
05:33 40.5 °F 28.1 °F 29.89 in SW 2.9 mph 5.0 mph 61 % 0.00 in
05:38 40.5 °F 27.7 °F 29.89 in WSW 2.4 mph 3.5 mph 60 % 0.00 in
05:43 40.5 °F 27.7 °F 29.90 in South 0.8 mph 3.5 mph 60 % 0.00 in
05:48 40.6 °F 27.8 °F 29.89 in West 0.8 mph 2.3 mph 60 % 0.00 in
05:53 40.7 °F 27.9 °F 29.89 in West 0.1 mph   60 % 0.00 in
05:58 40.7 °F 27.9 °F 29.89 in West 0.9 mph 1.2 mph 60 % 0.00 in
06:03 40.7 °F 28.3 °F 29.89 in WSW 0.1 mph 2.3 mph 61 % 0.00 in
06:08 40.8 °F 28.4 °F 29.88 in WSW 0.3 mph 1.2 mph 61 % 0.00 in
06:14 40.8 °F 28.4 °F 29.88 in Calm     61 % 0.00 in
06:19 40.8 °F 28.8 °F 29.88 in Calm   1.2 mph 62 % 0.00 in
06:24 40.9 °F 28.9 °F 29.88 in Calm     62 % 0.00 in
06:29 40.9 °F 28.9 °F 29.88 in Calm     62 % 0.00 in
06:34 40.9 °F 28.9 °F 29.88 in Calm     62 % 0.00 in
06:39 40.9 °F 28.9 °F 29.89 in WNW 2.5 mph 4.0 mph 62 % 0.00 in
06:44 40.9 °F 28.9 °F 29.89 in WNW 1.9 mph 2.3 mph 62 % 0.00 in
06:49 40.9 °F 28.9 °F 29.89 in West 1.4 mph 2.3 mph 62 % 0.00 in
06:54 40.9 °F 28.9 °F 29.89 in West 0.3 mph 2.3 mph 62 % 0.00 in
06:59 41.0 °F 29.0 °F 29.89 in West 0.4 mph 2.3 mph 62 % 0.00 in
07:04 41.0 °F 29.0 °F 29.89 in West 1.4 mph 3.5 mph 62 % 0.00 in
07:09 41.0 °F 29.0 °F 29.88 in Calm   1.2 mph 62 % 0.00 in
07:15 41.1 °F 29.1 °F 29.88 in Calm   1.2 mph 62 % 0.00 in
07:20 41.1 °F 29.5 °F 29.88 in West 0.3 mph 1.2 mph 63 % 0.00 in
07:22 41.1 °F 29.5 °F 29.88 in West 0.2 mph 1.2 mph 63 % 0.00 in
07:27 41.2 °F 29.5 °F 29.88 in West 0.4 mph 1.2 mph 63 % 0.00 in
07:32 41.1 °F 29.5 °F 29.88 in Calm   2.3 mph 63 % 0.00 in
07:37 41.2 °F 29.5 °F 29.88 in Calm   1.2 mph 63 % 0.00 in
07:42 41.3 °F 29.6 °F 29.88 in Calm   1.0 mph 63 % 0.00 in
07:47 41.3 °F 30.0 °F 29.88 in Calm     64 % 0.00 in
07:52 41.4 °F 30.1 °F 29.89 in Calm   1.2 mph 64 % 0.00 in
07:57 41.4 °F 29.7 °F 29.89 in Calm     63 % 0.00 in
08:02 41.5 °F 29.8 °F 29.89 in WSW 0.5 mph 2.0 mph 63 % 0.00 in
08:07 41.6 °F 29.5 °F 29.89 in WSW 1.5 mph 3.5 mph 62 % 0.00 in
08:12 41.7 °F 29.2 °F 29.89 in Calm     61 % 0.00 in
08:17 41.8 °F 28.1 °F 29.89 in WSW 0.6 mph 2.3 mph 58 % 0.00 in
08:22 41.9 °F 28.2 °F 29.89 in WSW 1.3 mph 2.3 mph 58 % 0.00 in
08:27 42.1 °F 28.4 °F 29.89 in WSW 1.7 mph 3.5 mph 58 % 0.00 in
08:32 42.2 °F 28.5 °F 29.89 in Calm     58 % 0.00 in
08:37 42.4 °F 28.7 °F 29.90 in WSW 0.1 mph   58 % 0.00 in
08:42 42.5 °F 28.8 °F 29.89 in WSW 0.1 mph 1.2 mph 58 % 0.00 in
08:47 42.7 °F 28.5 °F 29.90 in WSW 0.1 mph 3.5 mph 57 % 0.00 in
08:53 42.8 °F 27.7 °F 29.90 in WSW 0.4 mph 2.3 mph 55 % 0.00 in
08:58 43.1 °F 27.6 °F 29.89 in WSW 0.1 mph   54 % 0.00 in
09:03 43.2 °F 28.1 °F 29.90 in Calm   2.0 mph 55 % 0.00 in
09:08 43.3 °F 28.2 °F 29.90 in Calm   4.0 mph 55 % 0.00 in
09:13 43.5 °F 29.3 °F 29.90 in WSW 1.4 mph 4.0 mph 57 % 0.00 in
09:18 43.6 °F 28.9 °F 29.90 in WSW 4.9 mph 5.0 mph 56 % 0.00 in
09:23 43.7 °F 29.0 °F 29.90 in WSW 1.0 mph 6.0 mph 56 % 0.00 in
09:28 43.7 °F 29.0 °F 29.90 in WSW 2.0 mph 6.0 mph 56 % 0.00 in
09:33 43.8 °F 29.5 °F 29.90 in WSW 3.0 mph 6.0 mph 57 % 0.00 in
09:38 43.9 °F 29.6 °F 29.90 in WSW 3.0 mph 7.0 mph 57 % 0.00 in
09:43 43.9 °F 29.6 °F 29.90 in WSW 1.0 mph 5.0 mph 57 % 0.00 in
09:48 44.1 °F 29.8 °F 29.90 in WSW 2.0 mph 6.0 mph 57 % 0.00 in
09:53 44.2 °F 29.9 °F 29.90 in WSW 2.0 mph 5.0 mph 57 % 0.00 in
09:58 44.5 °F 29.8 °F 29.89 in WSW 2.3 mph 4.0 mph 56 % 0.00 in
10:03 44.7 °F 29.5 °F 29.89 in WSW 3.0 mph 6.0 mph 55 % 0.00 in
10:08 44.9 °F 28.8 °F 29.89 in WSW 2.0 mph 6.0 mph 53 % 0.00 in
10:13 45.0 °F 28.9 °F 29.89 in WSW 2.2 mph 4.6 mph 53 % 0.00 in
10:18 45.1 °F 29.0 °F 29.89 in WSW 3.0 mph 6.0 mph 53 % 0.00 in
10:23 45.4 °F 29.2 °F 29.89 in WSW 3.0 mph 6.0 mph 53 % 0.00 in
10:28 45.8 °F 29.6 °F 29.89 in WSW 2.0 mph 4.0 mph 53 % 0.00 in
10:33 46.1 °F 29.0 °F 29.89 in WNW 2.5 mph 4.6 mph 51 % 0.00 in
10:34 46.2 °F 29.1 °F 29.89 in WSW 3.6 mph 4.0 mph 51 % 0.00 in
10:39 46.5 °F 28.8 °F 29.89 in WNW 1.2 mph 3.5 mph 50 % 0.00 in
10:44 46.6 °F 28.4 °F 29.90 in WNW 3.2 mph 5.0 mph 49 % 0.00 in
10:49 46.7 °F 28.0 °F 29.89 in West 2.0 mph 3.5 mph 48 % 0.00 in
10:54 46.9 °F 27.2 °F 29.89 in WNW 3.9 mph 5.0 mph 46 % 0.00 in
11:00 46.9 °F 27.7 °F 29.89 in West 3.4 mph 4.6 mph 47 % 0.00 in
11:05 46.9 °F 28.2 °F 29.89 in WNW 2.3 mph 3.5 mph 48 % 0.00 in
11:10 47.1 °F 28.4 °F 29.89 in WNW 0.6 mph 3.5 mph 48 % 0.00 in
11:15 47.3 °F 29.6 °F 29.89 in NNW 3.5 mph 4.6 mph 50 % 0.00 in
11:20 47.5 °F 30.7 °F 29.89 in WNW 3.4 mph 6.9 mph 52 % 0.00 in
11:25 47.6 °F 30.3 °F 29.89 in WNW 0.7 mph 4.6 mph 51 % 0.00 in
11:30 47.7 °F 30.9 °F 29.89 in Calm   1.2 mph 52 % 0.00 in
11:35 47.9 °F 30.6 °F 29.89 in NNW 2.3 mph 3.5 mph 51 % 0.00 in
11:40 48.2 °F 30.4 °F 29.89 in NW 2.0 mph 3.5 mph 50 % 0.00 in
11:45 48.3 °F 30.0 °F 29.89 in NW 4.2 mph 5.8 mph 49 % 0.00 in
11:50 48.3 °F 29.5 °F 29.89 in NW 2.3 mph 5.8 mph 48 % 0.00 in
11:55 48.3 °F 29.5 °F 29.89 in NW 2.9 mph 5.0 mph 48 % 0.00 in
12:00 48.1 °F 29.8 °F 29.89 in NW 2.1 mph 3.5 mph 49 % 0.00 in
12:05 48.2 °F 29.9 °F 29.89 in NW 1.4 mph 2.3 mph 49 % 0.00 in
12:10 48.5 °F 30.7 °F 29.89 in West 1.4 mph 4.0 mph 50 % 0.00 in
12:15 48.8 °F 28.4 °F 29.89 in SW 2.7 mph 5.8 mph 45 % 0.00 in
12:20 49.0 °F 28.6 °F 29.89 in WNW 1.7 mph 3.5 mph 45 % 0.00 in
12:25 49.4 °F 29.5 °F 29.88 in WNW 2.7 mph 4.6 mph 46 % 0.00 in
12:30 49.8 °F 28.2 °F 29.88 in SSW 1.2 mph 3.5 mph 43 % 0.00 in
12:35 50.2 °F 29.7 °F 29.88 in WNW 1.9 mph 2.3 mph 45 % 0.00 in
12:37 50.3 °F 28.6 °F 29.88 in NW 2.9 mph 5.8 mph 43 % 0.00 in
12:42 50.9 °F 31.9 °F 29.88 in NW 0.1 mph 1.2 mph 48 % 0.00 in
12:47 51.3 °F 30.1 °F 29.87 in NNW 2.0 mph 4.6 mph 44 % 0.00 in
12:52 51.5 °F 30.3 °F 29.87 in North 2.7 mph 5.8 mph 44 % 0.00 in
12:57 52.0 °F 30.7 °F 29.87 in NNW 2.0 mph 4.0 mph 44 % 0.00 in
13:02 52.3 °F 31.0 °F 29.87 in NNW 1.9 mph 4.6 mph 44 % 0.00 in
13:07 52.8 °F 33.6 °F 29.87 in NNW 2.4 mph 4.0 mph 48 % 0.00 in
13:12 53.4 °F 32.6 °F 29.87 in NW 2.5 mph 3.5 mph 45 % 0.00 in
13:17 54.0 °F 33.7 °F 29.86 in North 2.0 mph 3.5 mph 46 % 0.00 in
13:22 54.4 °F 33.5 °F 29.86 in WNW 3.7 mph 4.6 mph 45 % 0.00 in
13:27 54.5 °F 33.0 °F 29.86 in North 3.9 mph 5.0 mph 44 % 0.00 in
13:32 54.8 °F 33.8 °F 29.86 in NNW 3.6 mph 5.0 mph 45 % 0.00 in
13:37 55.2 °F 33.1 °F 29.86 in NNW 2.6 mph 3.5 mph 43 % 0.00 in
13:42 55.5 °F 35.0 °F 29.86 in North 3.1 mph 6.9 mph 46 % 0.00 in
13:47 55.7 °F 34.1 °F 29.85 in NNW 2.9 mph 4.0 mph 44 % 0.00 in
13:52 55.7 °F 34.1 °F 29.85 in NNW 2.3 mph 5.8 mph 44 % 0.00 in
13:58 55.5 °F 33.3 °F 29.84 in WNW 2.2 mph 6.9 mph 43 % 0.00 in
14:03 55.6 °F 32.8 °F 29.84 in WNW 5.0 mph 7.0 mph 42 % 0.00 in
14:08 55.8 °F 33.6 °F 29.84 in NW 3.0 mph 8.0 mph 43 % 0.00 in
14:13 55.8 °F 33.0 °F 29.84 in WNW 3.0 mph 8.0 mph 42 % 0.00 in
14:18 55.9 °F 32.5 °F 29.84 in WNW 5.0 mph 8.0 mph 41 % 0.00 in
14:23 55.8 °F 31.8 °F 29.84 in WNW 5.0 mph 10.0 mph 40 % 0.00 in
14:28 55.6 °F 31.0 °F 29.84 in WNW 3.0 mph 8.0 mph 39 % 0.00 in
14:33 55.5 °F 31.5 °F 29.84 in WNW 4.9 mph 6.0 mph 40 % 0.00 in
14:38 55.7 °F 31.7 °F 29.83 in WNW 4.8 mph 9.2 mph 40 % 0.00 in
14:43 55.9 °F 31.9 °F 29.83 in West 3.0 mph 10.0 mph 40 % 0.00 in
14:48 55.7 °F 31.1 °F 29.83 in West 5.0 mph 12.0 mph 39 % 0.00 in
14:53 55.8 °F 31.2 °F 29.83 in West 3.0 mph 8.0 mph 39 % 0.00 in
14:58 55.8 °F 31.8 °F 29.83 in West 3.7 mph 6.9 mph 40 % 0.00 in
15:03 55.8 °F 31.2 °F 29.83 in WNW 1.8 mph 6.9 mph 39 % 0.00 in
15:08 55.9 °F 32.5 °F 29.82 in WSW 5.5 mph 7.0 mph 41 % 0.00 in
15:13 56.0 °F 33.2 °F 29.82 in SW 3.1 mph 8.1 mph 42 % 0.00 in
15:18 56.2 °F 32.2 °F 29.82 in West 5.8 mph 10.4 mph 40 % 0.00 in
15:23 56.2 °F 32.2 °F 29.82 in SW 5.2 mph 8.1 mph 40 % 0.00 in
15:28 56.1 °F 32.1 °F 29.82 in SW 4.2 mph 8.1 mph 40 % 0.00 in
15:33 56.2 °F 32.2 °F 29.81 in WSW 6.2 mph 10.4 mph 40 % 0.00 in
15:40 56.0 °F 32.0 °F 29.81 in WSW 6.6 mph 10.4 mph 40 % 0.00 in
15:45 56.1 °F 32.7 °F 29.81 in SW 4.2 mph 5.8 mph 41 % 0.00 in
15:50 56.2 °F 32.8 °F 29.81 in West 5.1 mph 5.8 mph 41 % 0.00 in
15:51 56.2 °F 32.8 °F 29.81 in WNW 5.3 mph 5.8 mph 41 % 0.00 in
15:56 56.4 °F 32.4 °F 29.81 in WNW 2.2 mph 4.6 mph 40 % 0.00 in
16:01 56.5 °F 32.4 °F 29.81 in West 3.2 mph 9.2 mph 40 % 0.00 in
16:06 56.5 °F 33.1 °F 29.80 in WSW 4.4 mph 8.1 mph 41 % 0.00 in
16:11 56.7 °F 33.2 °F 29.80 in WSW 4.3 mph 6.9 mph 41 % 0.00 in
16:16 56.5 °F 32.4 °F 29.80 in West 3.7 mph 10.0 mph 40 % 0.00 in
16:21 56.7 °F 32.6 °F 29.80 in SSW 2.2 mph 5.8 mph 40 % 0.00 in
16:27 56.7 °F 32.6 °F 29.80 in SW 2.5 mph 10.4 mph 40 % 0.00 in
16:32 56.9 °F 33.4 °F 29.80 in West 4.0 mph 7.0 mph 41 % 0.00 in
16:37 57.0 °F 32.9 °F 29.79 in WSW 4.0 mph 6.0 mph 40 % 0.00 in
16:42 57.3 °F 33.2 °F 29.79 in WNW 5.6 mph 8.0 mph 40 % 0.00 in
16:47 57.5 °F 33.3 °F 29.78 in West 4.3 mph 6.9 mph 40 % 0.00 in
16:52 57.5 °F 33.3 °F 29.78 in WSW 3.4 mph 7.0 mph 40 % 0.00 in
16:57 57.3 °F 33.2 °F 29.78 in WSW 5.1 mph 7.0 mph 40 % 0.00 in
17:02 56.9 °F 32.8 °F 29.78 in WSW 5.0 mph 6.9 mph 40 % 0.00 in
17:07 56.7 °F 33.2 °F 29.78 in SW 1.3 mph 4.6 mph 41 % 0.00 in
17:12 56.6 °F 33.2 °F 29.78 in West 5.4 mph 8.1 mph 41 % 0.00 in
17:17 56.4 °F 33.6 °F 29.78 in WSW 5.3 mph 6.9 mph 42 % 0.00 in
17:22 56.3 °F 33.5 °F 29.78 in West 4.7 mph 5.8 mph 42 % 0.00 in
17:27 56.2 °F 33.4 °F 29.77 in WSW 4.3 mph 5.8 mph 42 % 0.00 in
17:32 56.2 °F 33.4 °F 29.78 in WSW 4.8 mph 6.0 mph 42 % 0.00 in
17:37 56.2 °F 34.0 °F 29.78 in West 2.1 mph 3.5 mph 43 % 0.00 in
17:42 56.2 °F 34.0 °F 29.78 in WSW 4.2 mph 6.0 mph 43 % 0.00 in
17:47 56.1 °F 33.9 °F 29.78 in WSW 4.3 mph 5.0 mph 43 % 0.00 in
17:52 56.0 °F 34.4 °F 29.78 in SSW 2.0 mph 3.5 mph 44 % 0.00 in
17:57 56.0 °F 34.4 °F 29.78 in SSW 1.9 mph 3.0 mph 44 % 0.00 in
18:02 56.0 °F 34.4 °F 29.78 in West 1.9 mph 3.5 mph 44 % 0.00 in
18:07 56.0 °F 34.4 °F 29.78 in WSW 1.7 mph 3.5 mph 44 % 0.00 in
18:12 56.0 °F 34.4 °F 29.78 in WSW 0.8 mph 2.0 mph 44 % 0.00 in
18:17 56.0 °F 34.9 °F 29.78 in WSW 1.5 mph 3.5 mph 45 % 0.00 in
18:22 55.9 °F 34.8 °F 29.78 in WSW 0.4 mph 2.3 mph 45 % 0.00 in
18:27 55.9 °F 34.3 °F 29.78 in SW 1.8 mph 3.5 mph 44 % 0.00 in
18:32 55.8 °F 34.8 °F 29.78 in WSW 0.6 mph 2.3 mph 45 % 0.00 in
18:37 55.7 °F 34.7 °F 29.78 in SW 0.5 mph 1.2 mph 45 % 0.00 in
18:42 55.5 °F 35.0 °F 29.79 in SSW 4.6 mph 5.8 mph 46 % 0.00 in
18:47 55.1 °F 35.2 °F 29.78 in South 1.7 mph 2.3 mph 47 % 0.00 in
18:52 54.9 °F 35.6 °F 29.79 in WSW 3.1 mph 7.0 mph 48 % 0.00 in
18:57 54.6 °F 35.8 °F 29.79 in SSW 3.3 mph 6.0 mph 49 % 0.00 in
19:02 54.3 °F 35.5 °F 29.79 in SW 1.1 mph 8.1 mph 49 % 0.00 in
19:07 54.1 °F 35.9 °F 29.79 in SSW 3.1 mph 4.6 mph 50 % 0.00 in
19:12 53.8 °F 35.6 °F 29.79 in SW 0.4 mph 5.8 mph 50 % 0.00 in
19:17 53.6 °F 35.4 °F 29.79 in SW 2.8 mph 3.5 mph 50 % 0.00 in
19:23 53.4 °F 35.7 °F 29.80 in SSW 2.7 mph 4.6 mph 51 % 0.00 in
19:27 53.2 °F 35.5 °F 29.79 in SSW 1.2 mph 3.5 mph 51 % 0.00 in
19:32 52.9 °F 35.7 °F 29.79 in SSW 1.6 mph 4.0 mph 52 % 0.00 in
19:38 52.7 °F 35.6 °F 29.79 in SW 1.0 mph 3.0 mph 52 % 0.00 in
19:43 52.4 °F 35.8 °F 29.80 in SW 3.0 mph 9.0 mph 53 % 0.00 in
19:48 52.0 °F 35.9 °F 29.80 in SW 4.0 mph 4.0 mph 54 % 0.00 in
19:53 51.7 °F 36.0 °F 29.80 in SW 3.0 mph 7.0 mph 55 % 0.00 in
19:58 51.3 °F 36.1 °F 29.80 in SW 2.3 mph 5.8 mph 56 % 0.00 in
20:03 51.2 °F 36.0 °F 29.81 in WSW 1.5 mph 5.8 mph 56 % 0.00 in
20:08 51.0 °F 35.8 °F 29.81 in SW 2.2 mph 6.0 mph 56 % 0.00 in
20:13 50.8 °F 36.1 °F 29.81 in SW 2.3 mph 4.0 mph 57 % 0.00 in
20:18 50.5 °F 36.3 °F 29.82 in SW 1.1 mph 3.5 mph 58 % 0.00 in
20:23 50.3 °F 36.1 °F 29.82 in WSW 2.0 mph 3.5 mph 58 % 0.00 in
20:28 50.1 °F 35.9 °F 29.82 in SW 2.1 mph 5.0 mph 58 % 0.00 in
20:33 49.9 °F 35.7 °F 29.82 in SW 1.6 mph 3.0 mph 58 % 0.00 in
20:38 49.8 °F 36.0 °F 29.82 in SW 2.6 mph 3.5 mph 59 % 0.00 in
20:43 49.6 °F 35.8 °F 29.83 in SSW 1.5 mph 4.6 mph 59 % 0.00 in
20:48 49.4 °F 35.7 °F 29.82 in SSW 0.3 mph 3.5 mph 59 % 0.00 in
20:53 49.3 °F 35.6 °F 29.83 in SSW 1.2 mph 2.3 mph 59 % 0.00 in
20:58 49.1 °F 35.8 °F 29.82 in SSW 0.8 mph 2.3 mph 60 % 0.00 in
21:03 49.0 °F 35.7 °F 29.82 in Calm     60 % 0.00 in
21:08 48.8 °F 35.5 °F 29.82 in SSW 0.4 mph 2.3 mph 60 % 0.00 in
21:13 48.6 °F 35.3 °F 29.83 in SSW 0.4 mph 2.0 mph 60 % 0.00 in
21:19 48.4 °F 35.6 °F 29.83 in SSW 1.3 mph 3.5 mph 61 % 0.00 in
21:24 48.2 °F 35.4 °F 29.82 in SSW 1.3 mph 3.5 mph 61 % 0.00 in
21:29 48.1 °F 35.7 °F 29.83 in SSW 1.5 mph 3.0 mph 62 % 0.00 in
21:34 47.9 °F 35.5 °F 29.83 in SSW 1.2 mph 2.3 mph 62 % 0.00 in
21:39 47.7 °F 35.3 °F 29.83 in SSW 0.5 mph 1.2 mph 62 % 0.00 in
21:44 47.5 °F 35.5 °F 29.83 in SSW 1.1 mph 2.3 mph 63 % 0.00 in
21:49 47.3 °F 35.3 °F 29.83 in SSW 1.6 mph 2.3 mph 63 % 0.00 in
21:54 47.0 °F 35.0 °F 29.83 in SSW 1.0 mph 2.3 mph 63 % 0.00 in
21:59 46.8 °F 35.3 °F 29.83 in SSW 1.4 mph 3.5 mph 64 % 0.00 in
22:04 46.6 °F 35.1 °F 29.83 in SSW 1.8 mph 3.0 mph 64 % 0.00 in
22:09 46.4 °F 34.9 °F 29.83 in Calm   2.3 mph 64 % 0.00 in
22:14 46.3 °F 35.2 °F 29.83 in SSW 2.3 mph 3.5 mph 65 % 0.00 in
22:19 46.2 °F 35.1 °F 29.83 in SSW 1.6 mph 3.5 mph 65 % 0.00 in
22:24 46.1 °F 35.0 °F 29.83 in SSW 1.5 mph 2.3 mph 65 % 0.00 in
22:29 46.1 °F 35.0 °F 29.83 in SSW 0.4 mph 2.3 mph 65 % 0.00 in
22:34 46.2 °F 33.5 °F 29.83 in WNW 2.1 mph 3.5 mph 61 % 0.00 in
22:39 46.4 °F 33.7 °F 29.83 in WNW 0.3 mph 2.0 mph 61 % 0.00 in
22:44 46.4 °F 33.3 °F 29.83 in WNW 0.4 mph 1.2 mph 60 % 0.00 in
22:49 46.5 °F 33.4 °F 29.83 in WNW 0.2 mph 3.5 mph 60 % 0.00 in
22:55 46.7 °F 33.1 °F 29.83 in WNW 1.2 mph 2.0 mph 59 % 0.00 in
23:00 46.8 °F 33.2 °F 29.83 in WNW 0.1 mph 1.2 mph 59 % 0.00 in
23:05 46.8 °F 32.8 °F 29.83 in WNW 0.1 mph 1.2 mph 58 % 0.00 in
23:10 46.8 °F 32.8 °F 29.83 in Calm     58 % 0.00 in
23:15 46.8 °F 32.8 °F 29.83 in Calm     58 % 0.00 in
23:20 46.8 °F 32.8 °F 29.83 in WNW 0.4 mph 1.2 mph 58 % 0.00 in
23:25 46.6 °F 32.6 °F 29.83 in Calm     58 % 0.00 in
23:30 46.5 °F 32.9 °F 29.83 in Calm     59 % 0.00 in
23:35 46.4 °F 32.8 °F 29.83 in Calm     59 % 0.00 in
23:40 46.2 °F 33.5 °F 29.83 in Calm     61 % 0.00 in
23:45 46.0 °F 33.7 °F 29.83 in Calm     62 % 0.00 in
23:50 45.8 °F 33.5 °F 29.83 in Calm     62 % 0.00 in
23:56 45.5 °F 32.8 °F 29.83 in Calm     61 % 0.00 in
Crab Meadow Weather
Compliments of Weather Underground - 3 mb

Script developed by  Jim McMurry - jmcmurry@mwt.net Adapted for the template by  Wim van der Kuil - Leuven-Template.eu

Snow: Snowflakes generally fall from the sky at speeds between one and five miles per hour.